When you browse on this site, cookies collect data to enhance your experience and personalize the content and advertising you see.
Visit our Privacy Policy to learn more. By continuing to use the site, you agree to this use of cookies and data.
  • In Romania
  • List of Countries
  • For 7 days
  • Water Temperature
  • Satellite Maps
  • Weather Map
  • Weather Widgets
  • user-avatar
    Login

    Hourly Weather Arrigorriaga

    Today, 18 February, Monday

    Time Temperature Precipitation Wind Pressure Humidity
    00:00 +9°C° 0 mm 3 mps 741 mmHg 49%
    01:00 +9°C° 0 mm 3 mps 741 mmHg 52%
    02:00 +8°C° 0 mm 3 mps 741 mmHg 55%
    03:00 +8°C° 0 mm 3 mps 741 mmHg 58%
    04:00 +8°C° 0 mm 3 mps 741 mmHg 60%
    05:00 +7°C° 0 mm 3 mps 741 mmHg 63%
    06:00 +7°C° 0 mm 2 mps 741 mmHg 68%
    07:00 +7°C° 0 mm 2 mps 742 mmHg 65%
    08:00 +8°C° 0 mm 2 mps 742 mmHg 63%
    09:00 +9°C° 0 mm 2 mps 742 mmHg 61%
    10:00 +12°C° 0 mm 2 mps 742 mmHg 56%
    11:00 +14°C° 0 mm 1 mps 742 mmHg 51%
    12:00 +18°C° 0 mm 1 mps 742 mmHg 45%
    13:00 +17°C° 0 mm 2 mps 742 mmHg 46%
    14:00 +17°C° 0 mm 2 mps 741 mmHg 47%
    15:00 +17°C° 0 mm 2 mps 741 mmHg 48%
    16:00 +15°C° 0 mm 2 mps 741 mmHg 60%
    17:00 +13°C° 0 mm 2 mps 741 mmHg 72%
    18:00 +10°C° 0 mm 2 mps 742 mmHg 84%
    19:00 +10°C° 0 mm 1 mps 742 mmHg 87%
    20:00 +10°C° 0 mm 1 mps 743 mmHg 91%
    21:00 +10°C° 0 mm 1 mps 743 mmHg 95%
    22:00 +10°C° 0.1 mm 1 mps 743 mmHg 95%
    23:00 +10°C° 0.1 mm 1 mps 744 mmHg 95%

    Tomorrow, 19 February, Tuesday

    Time Temperature Precipitation Wind Pressure Humidity
    00:00 +10°C° 0.1 mm 1 mps 744 mmHg 96%
    01:00 +10°C° 0.1 mm 1 mps 744 mmHg 96%
    02:00 +10°C° 0.1 mm 1 mps 744 mmHg 96%
    03:00 +10°C° 0.1 mm 1 mps 744 mmHg 96%
    04:00 +10°C° 0.1 mm 1 mps 744 mmHg 96%
    05:00 +9°C° 0.1 mm 1 mps 744 mmHg 96%
    06:00 +9°C° 0.1 mm 1 mps 744 mmHg 96%
    07:00 +9°C° 0.1 mm 1 mps 744 mmHg 95%
    08:00 +10°C° 0.1 mm 1 mps 744 mmHg 94%
    09:00 +9°C° 0.1 mm 0 mps 744 mmHg 92%
    10:00 +10°C° 0 mm 0 mps 744 mmHg 88%
    11:00 +12°C° 0 mm 1 mps 744 mmHg 83%
    12:00 +13°C° 0 mm 1 mps 744 mmHg 78%
    13:00 +13°C° 0 mm 1 mps 744 mmHg 76%
    14:00 +13°C° 0 mm 1 mps 743 mmHg 73%
    15:00 +14°C° 0 mm 1 mps 743 mmHg 71%
    16:00 +13°C° 0 mm 1 mps 743 mmHg 78%
    17:00 +11°C° 0 mm 1 mps 743 mmHg 85%
    18:00 +10°C° 0 mm 1 mps 743 mmHg 92%
    19:00 +10°C° 0 mm 1 mps 743 mmHg 93%
    20:00 +9°C° 0 mm 1 mps 743 mmHg 93%
    21:00 +9°C° 0 mm 1 mps 744 mmHg 93%
    22:00 +9°C° 0 mm 1 mps 744 mmHg 90%
    23:00 +8°C° 0 mm 1 mps 744 mmHg 87%

    Day after tomorrow, 20 February, Wednesday

    Time Temperature Precipitation Wind Pressure Humidity
    00:00 +8°C° 0 mm 1 mps 744 mmHg 84%
    01:00 +8°C° 0 mm 1 mps 744 mmHg 82%
    02:00 +7°C° 0 mm 2 mps 744 mmHg 80%
    03:00 +7°C° 0 mm 2 mps 743 mmHg 78%
    04:00 +7°C° 0 mm 2 mps 743 mmHg 78%
    05:00 +7°C° 0 mm 2 mps 744 mmHg 79%
    06:00 +7°C° 0 mm 2 mps 744 mmHg 79%
    07:00 +8°C° 0 mm 2 mps 744 mmHg 75%
    08:00 +9°C° 0 mm 2 mps 744 mmHg 71%
    09:00 +10°C° 0 mm 2 mps 745 mmHg 67%
    10:00 +13°C° 0 mm 2 mps 745 mmHg 62%
    11:00 +15°C° 0 mm 2 mps 745 mmHg 56%
    12:00 +17°C° 0 mm 2 mps 745 mmHg 50%
    13:00 +18°C° 0 mm 2 mps 745 mmHg 49%
    14:00 +19°C° 0 mm 1 mps 744 mmHg 49%
    15:00 +19°C° 0 mm 1 mps 744 mmHg 48%
    16:00 +16°C° 0 mm 1 mps 744 mmHg 57%
    17:00 +14°C° 0 mm 1 mps 744 mmHg 65%
    18:00 +12°C° 0 mm 1 mps 745 mmHg 74%
    19:00 +12°C° 0 mm 1 mps 745 mmHg 75%
    20:00 +11°C° 0 mm 1 mps 745 mmHg 76%
    21:00 +9°C° 0 mm 2 mps 746 mmHg 78%
    22:00 +9°C° 0 mm 2 mps 746 mmHg 76%
    23:00 +9°C° 0 mm 2 mps 746 mmHg 75%

    21 February, Thursday

    Time Temperature Precipitation Wind Pressure Humidity
    00:00 +9°C° 0 mm 2 mps 746 mmHg 74%
    01:00 +9°C° 0 mm 3 mps 746 mmHg 73%
    02:00 +9°C° 0 mm 3 mps 746 mmHg 73%
    03:00 +9°C° 0 mm 3 mps 746 mmHg 72%
    04:00 +9°C° 0 mm 3 mps 747 mmHg 72%
    05:00 +9°C° 0 mm 3 mps 747 mmHg 72%
    06:00 +9°C° 0 mm 3 mps 747 mmHg 72%
    07:00 +9°C° 0 mm 3 mps 747 mmHg 69%
    08:00 +10°C° 0 mm 3 mps 748 mmHg 67%
    09:00 +11°C° 0 mm 3 mps 748 mmHg 64%
    10:00 +13°C° 0 mm 3 mps 748 mmHg 58%
    11:00 +16°C° 0 mm 3 mps 748 mmHg 52%
    12:00 +18°C° 0 mm 3 mps 748 mmHg 45%
    13:00 +19°C° 0 mm 3 mps 748 mmHg 44%
    14:00 +20°C° 0 mm 3 mps 748 mmHg 42%
    15:00 +20°C° 0 mm 2 mps 748 mmHg 41%
    16:00 +18°C° 0 mm 2 mps 748 mmHg 48%
    17:00 +16°C° 0 mm 2 mps 748 mmHg 56%
    18:00 +14°C° 0 mm 2 mps 748 mmHg 64%
    19:00 +13°C° 0 mm 2 mps 749 mmHg 65%
    20:00 +13°C° 0 mm 2 mps 749 mmHg 67%
    21:00 +11°C° 0 mm 3 mps 750 mmHg 69%
    22:00 +11°C° 0 mm 3 mps 750 mmHg 69%
    23:00 +10°C° 0 mm 3 mps 750 mmHg 68%

    22 February, Friday

    Time Temperature Precipitation Wind Pressure Humidity
    00:00 +10°C° 0 mm 3 mps 750 mmHg 68%
    01:00 +10°C° 0 mm 3 mps 750 mmHg 66%
    02:00 +10°C° 0 mm 3 mps 750 mmHg 65%
    03:00 +10°C° 0 mm 3 mps 750 mmHg 63%
    04:00 +9°C° 0 mm 3 mps 750 mmHg 63%
    05:00 +9°C° 0 mm 3 mps 750 mmHg 62%
    06:00 +9°C° 0 mm 3 mps 750 mmHg 62%
    07:00 +10°C° 0 mm 3 mps 751 mmHg 59%
    08:00 +11°C° 0 mm 3 mps 751 mmHg 56%
    09:00 +12°C° 0 mm 3 mps 751 mmHg 53%
    10:00 +15°C° 0 mm 2 mps 751 mmHg 47%
    11:00 +18°C° 0 mm 2 mps 751 mmHg 42%
    12:00 +20°C° 0 mm 2 mps 751 mmHg 36%
    13:00 +20°C° 0 mm 2 mps 751 mmHg 35%
    14:00 +21°C° 0 mm 2 mps 750 mmHg 33%
    15:00 +23°C° 0 mm 2 mps 750 mmHg 32%
    16:00 +19°C° 0 mm 2 mps 750 mmHg 39%
    17:00 +17°C° 0 mm 2 mps 749 mmHg 47%
    18:00 +15°C° 0 mm 2 mps 749 mmHg 54%
    19:00 +14°C° 0 mm 2 mps 750 mmHg 56%
    20:00 +13°C° 0 mm 2 mps 750 mmHg 58%
    21:00 +12°C° 0 mm 2 mps 750 mmHg 60%
    22:00 +12°C° 0 mm 2 mps 750 mmHg 60%
    23:00 +12°C° 0 mm 2 mps 750 mmHg 60%

    23 February, Saturday

    Time Temperature Precipitation Wind Pressure Humidity
    00:00 +12°C° 0 mm 2 mps 750 mmHg 60%
    01:00 +10°C° 0 mm 2 mps 750 mmHg 60%
    02:00 +10°C° 0 mm 2 mps 750 mmHg 60%
    03:00 +10°C° 0 mm 2 mps 750 mmHg 60%
    04:00 +10°C° 0 mm 3 mps 750 mmHg 59%
    05:00 +10°C° 0 mm 3 mps 750 mmHg 58%
    06:00 +9°C° 0 mm 3 mps 750 mmHg 57%
    07:00 +11°C° 0 mm 3 mps 750 mmHg 54%
    08:00 +12°C° 0 mm 3 mps 750 mmHg 51%
    09:00 +13°C° 0 mm 3 mps 751 mmHg 48%
    10:00 +16°C° 0 mm 3 mps 751 mmHg 43%
    11:00 +18°C° 0 mm 2 mps 751 mmHg 39%
    12:00 +21°C° 0 mm 2 mps 751 mmHg 34%
    13:00 +21°C° 0 mm 2 mps 751 mmHg 33%
    14:00 +23°C° 0 mm 2 mps 751 mmHg 32%
    15:00 +24°C° 0 mm 2 mps 750 mmHg 31%
    16:00 +21°C° 0 mm 2 mps 750 mmHg 39%
    17:00 +18°C° 0 mm 2 mps 750 mmHg 47%
    18:00 +16°C° 0 mm 2 mps 751 mmHg 56%
    19:00 +15°C° 0 mm 2 mps 751 mmHg 57%
    20:00 +14°C° 0 mm 2 mps 751 mmHg 58%
    21:00 +13°C° 0 mm 2 mps 752 mmHg 59%
    22:00 +12°C° 0 mm 2 mps 752 mmHg 59%
    23:00 +12°C° 0 mm 2 mps 752 mmHg 59%
    Show more